Jefferson, NC

9:20 PM EDT on September 22, 2019 (GMT -0400)
Ashe County

Weather History for KGEV - May, 2019

Change the Weather History Date:

Monday, May 20, 2019

  Actual Average Record
Temperature  
Mean Temperature 68 °F -  
Max Temperature 75 °F 72 °F 84 °F (1970)
Min Temperature 60 °F 49 °F 33 °F (2002)
Cooling Degree Days 2    
Growing Degree Days 18 (Base 50)    
Moisture  
Dew Point 54 °F    
Average Humidity 62    
Maximum Humidity 90    
Minimum Humidity 40    
Precipitation  
Precipitation 0.00 in - - ()
Sea Level Pressure  
Sea Level Pressure 30.08 in    
Wind  
Wind Speed 5 mph (West)    
Max Wind Speed 20 mph    
Max Gust Speed 26 mph    
Visibility 10 miles    
Events      
Averages and records for this station are not official NWS values.
T = Trace of Precipitation, MM = Missing Value Source: NWS Daily Summary

Daily Weather History Graph

Daily Weather History Graph

Search for Another Location

Airport or City:

Astronomy

May. 20, 2019 Rise Set
Actual Time 6:15 AM EDT 8:29 PM EDT
Civil Twilight 5:46 AM EDT 8:58 PM EDT
Nautical Twilight 5:10 AM EDT 9:34 PM EDT
Astronomical Twilight 4:31 AM EDT 10:13 PM EDT
Moon 10:28 PM EDT (5/20) 7:43 AM EDT (5/20)
Length of Visible Light 15h 12m
Length of Day
14h 14m
Waning Gibbous, 96% of the Moon is Illuminated
May 20
Waning Gibbous
May 26
Last Quarter
Jun 3
New
Jun 10
First Quarter
Jun 17
Full

Hourly Weather History & Observations

Time (EDT) Temp. Dew Point Humidity Pressure Visibility Wind Dir Wind Speed Gust Speed Precip Events Conditions
12:05 AM 63.5 °F 55.9 °F 76% 30.10 in 10.0 mi Calm Calm - N/A   Clear
12:25 AM 64.4 °F 55.6 °F 73% 30.09 in 10.0 mi South 4.6 mph - N/A   Clear
12:45 AM 65.3 °F 55.8 °F 71% 30.10 in 10.0 mi Calm Calm - N/A   Clear
1:05 AM 67.1 °F 56.5 °F 69% 30.10 in 10.0 mi SW 3.5 mph - N/A   Clear
1:25 AM 64.2 °F 56.3 °F 75% 30.10 in 10.0 mi Calm Calm - N/A   Clear
1:45 AM 64.8 °F 56.3 °F 74% 30.09 in 10.0 mi South 5.8 mph - N/A   Clear
2:05 AM - - N/A% 30.09 in 10.0 mi WSW 8.1 mph - N/A   Clear
2:25 AM 64.9 °F 56.8 °F 75% 30.09 in 10.0 mi Calm Calm - N/A   Clear
2:45 AM 64.6 °F 56.8 °F 76% 30.09 in 10.0 mi Calm Calm - N/A   Scattered Clouds
3:05 AM 64.6 °F 56.8 °F 76% 30.09 in 10.0 mi WSW 3.5 mph - N/A   Scattered Clouds
3:25 AM 62.4 °F 56.5 °F 81% 30.08 in 10.0 mi Calm Calm - N/A   Mostly Cloudy
3:45 AM 62.8 °F 56.7 °F 80% 30.08 in 10.0 mi Calm Calm - N/A   Mostly Cloudy
4:05 AM 61.9 °F 56.8 °F 84% 30.08 in 10.0 mi Calm Calm - N/A   Mostly Cloudy
4:25 AM 62.8 °F 57.2 °F 82% 30.08 in 10.0 mi West 3.5 mph - N/A   Overcast
4:45 AM 64.4 °F 56.7 °F 76% 30.08 in 10.0 mi Calm Calm - N/A   Mostly Cloudy
5:05 AM 61.9 °F 57.2 °F 85% 30.08 in 10.0 mi Calm Calm - N/A   Scattered Clouds
5:25 AM 60.3 °F 56.7 °F 88% 30.08 in 10.0 mi Calm Calm - N/A   Mostly Cloudy
5:45 AM 61.0 °F 56.8 °F 86% 30.08 in 10.0 mi Calm Calm - N/A   Overcast
6:05 AM 61.2 °F 56.7 °F 85% 30.08 in 10.0 mi Calm Calm - N/A   Overcast
6:25 AM 60.8 °F 56.7 °F 86% 30.09 in 10.0 mi Calm Calm - N/A   Overcast
6:45 AM 60.3 °F 56.5 °F 87% 30.09 in 10.0 mi Calm Calm - N/A   Overcast
7:05 AM 61.9 °F 56.3 °F 82% 30.09 in 10.0 mi Calm Calm - N/A   Scattered Clouds
7:25 AM 60.3 °F 57.2 °F 90% 30.09 in 10.0 mi Calm Calm - N/A   Clear
7:45 AM 62.8 °F 57.4 °F 82% 30.09 in 10.0 mi Calm Calm - N/A   Scattered Clouds
8:05 AM 64.8 °F 58.5 °F 80% 30.10 in 10.0 mi Calm Calm - N/A   Mostly Cloudy
8:25 AM 67.5 °F 57.4 °F 70% 30.10 in 10.0 mi Calm Calm - N/A   Mostly Cloudy
8:45 AM 68.2 °F 56.7 °F 67% 30.11 in 10.0 mi WSW 4.6 mph - N/A   Mostly Cloudy
9:05 AM - - N/A% 30.12 in 10.0 mi West 3.5 mph - N/A   Scattered Clouds
9:25 AM - - N/A% 30.11 in 10.0 mi SSW 3.5 mph - N/A   Mostly Cloudy
9:45 AM - - N/A% 30.11 in 10.0 mi West 9.2 mph - N/A   Overcast
10:05 AM - - N/A% 30.11 in 10.0 mi West 9.2 mph - N/A   Overcast
10:25 AM - - N/A% 30.11 in 10.0 mi WSW 6.9 mph - N/A   Mostly Cloudy
10:45 AM - - N/A% 30.11 in 10.0 mi NW 9.2 mph 17.3 mph N/A   Mostly Cloudy
11:05 AM - - N/A% 30.11 in 10.0 mi West 11.5 mph - N/A   Overcast
11:25 AM - - N/A% 30.10 in 10.0 mi West 10.4 mph 17.3 mph N/A   Mostly Cloudy
11:45 AM 70.7 °F 57.4 °F 63% 30.11 in 10.0 mi WNW 12.7 mph 18.4 mph N/A   Scattered Clouds
12:05 PM 71.4 °F 57.4 °F 61% 30.10 in 10.0 mi WNW 13.8 mph 18.4 mph N/A   Scattered Clouds
12:25 PM 72.0 °F 56.1 °F 57% 30.10 in 10.0 mi West 12.7 mph 19.6 mph N/A   Clear
12:45 PM 73.8 °F 54.7 °F 51% 30.10 in 10.0 mi West 16.1 mph 21.9 mph N/A   Clear
1:05 PM 73.4 °F 55.4 °F 53% 30.10 in 10.0 mi West 12.7 mph 19.6 mph N/A   Clear
1:25 PM 74.3 °F 53.2 °F 48% 30.10 in 10.0 mi WSW 10.4 mph 18.4 mph N/A   Scattered Clouds
1:45 PM 74.3 °F 52.0 °F 46% 30.09 in 10.0 mi WSW 13.8 mph 20.7 mph N/A   Scattered Clouds
2:05 PM 74.5 °F 51.3 °F 44% 30.08 in 10.0 mi WSW 16.1 mph 24.2 mph N/A   Clear
2:25 PM 74.8 °F 51.6 °F 44% 30.08 in 10.0 mi West 12.7 mph 19.6 mph N/A   Clear
2:45 PM 75.9 °F 50.0 °F 40% 30.07 in 10.0 mi West 13.8 mph 20.7 mph N/A   Clear
3:05 PM 75.7 °F 50.2 °F 41% 30.07 in 10.0 mi West 16.1 mph 20.7 mph N/A   Scattered Clouds
3:25 PM 74.7 °F 50.4 °F 42% 30.06 in 10.0 mi West 11.5 mph 26.5 mph N/A   Scattered Clouds
3:45 PM 75.2 °F 50.7 °F 42% 30.06 in 10.0 mi West 19.6 mph 25.3 mph N/A   Clear
4:05 PM 74.5 °F 50.7 °F 43% 30.04 in 10.0 mi WNW 15.0 mph 23.0 mph N/A   Clear
4:25 PM 75.0 °F 50.9 °F 43% 30.04 in 10.0 mi WNW 17.3 mph 26.5 mph N/A   Clear
4:45 PM 74.5 °F 51.8 °F 45% 30.04 in 10.0 mi West 16.1 mph 21.9 mph N/A   Clear
5:45 PM 74.1 °F 53.1 °F 48% 30.04 in 10.0 mi WNW 6.9 mph - N/A   Scattered Clouds
6:05 PM 73.4 °F 53.4 °F 49% 30.04 in 10.0 mi WNW 9.2 mph - N/A   Clear
6:25 PM 72.0 °F 53.8 °F 53% 30.05 in 10.0 mi WNW 11.5 mph 18.4 mph N/A   Scattered Clouds
6:45 PM 72.3 °F 51.4 °F 48% 30.06 in 10.0 mi West 10.4 mph 16.1 mph N/A   Scattered Clouds
7:05 PM 72.0 °F 51.8 °F 49% 30.04 in 10.0 mi West 11.5 mph - N/A   Scattered Clouds
7:25 PM 70.9 °F 52.3 °F 52% 30.04 in 10.0 mi West 6.9 mph - N/A   Clear
7:45 PM 70.2 °F 52.9 °F 54% 30.04 in 10.0 mi WNW 11.5 mph 19.6 mph N/A   Clear
8:05 PM 69.8 °F 53.8 °F 57% 30.06 in 10.0 mi WNW 10.4 mph - N/A   Clear
8:25 PM 69.3 °F 52.0 °F 54% 30.06 in 10.0 mi WNW 12.7 mph 16.1 mph N/A   Clear
8:45 PM 69.1 °F 50.9 °F 52% 30.07 in 10.0 mi WNW 9.2 mph 18.4 mph N/A   Clear
9:05 PM 68.5 °F 49.3 °F 50% 30.07 in 10.0 mi WNW 8.1 mph 19.6 mph N/A   Clear
9:25 PM 68.2 °F 48.4 °F 49% 30.07 in 10.0 mi WNW 11.5 mph 16.1 mph N/A   Clear
9:45 PM 67.6 °F 47.8 °F 49% 30.07 in 10.0 mi West 8.1 mph - N/A   Clear
10:05 PM 67.1 °F 47.7 °F 50% 30.08 in 10.0 mi WNW 8.1 mph - N/A   Clear
10:25 PM 66.7 °F 47.5 °F 50% 30.08 in 10.0 mi Calm Calm - N/A   Clear
10:45 PM 65.3 °F 48.2 °F 54% 30.07 in 10.0 mi NW 3.5 mph - N/A   Clear
11:05 PM 64.2 °F 48.0 °F 56% 30.07 in 10.0 mi Calm Calm - N/A   Clear
11:25 PM 63.3 °F 47.3 °F 56% 30.06 in 10.0 mi Calm Calm - N/A   Clear
11:45 PM 63.9 °F 47.5 °F 55% 30.07 in 10.0 mi NE 3.5 mph - N/A   Clear